GW5972 Weather Reports


time (UTC)temp
C
wind
direction
speed
KPH
gust
KPH
rain 1hr
cm
rain 24hr
cm
rain mn
cm
humidity
%
barometer
mb
20260505183837 11 43 0.0 1.6 0.00 0.00 0.00 67 1008.0
20260505183337 11 41 0.0 1.6 0.00 0.00 0.00 68 1008.0
20260505182837 11 4 1.6 4.8 0.00 0.00 0.00 67 1008.0
20260505182336 11 72 1.6 4.8 0.00 0.00 0.00 67 1008.0
20260505181836 11 89 0.0 0.0 0.00 0.00 0.00 68 1008.0
20260505180849 11 41 0.0 1.6 0.00 0.00 0.00 68 1008.0
20260505180338 11 40 0.0 1.6 0.00 0.00 0.00 68 1008.0
20260505175836 11 40 0.0 3.2 0.00 0.00 0.00 66 1008.0
20260505175337 11 67 1.6 4.8 0.00 0.00 0.00 66 1008.0
20260505174837 11 84 1.6 1.6 0.00 0.00 0.00 67 1008.0
20260505174338 11 96 0.0 1.6 0.00 0.00 0.00 67 1008.0
20260505173837 11 15 1.6 1.6 0.00 0.00 0.00 66 1008.0
20260505173337 11 33 1.6 1.6 0.00 0.00 0.00 66 1008.0
20260505172836 12 350 1.6 8.0 0.00 0.00 0.00 65 1008.0
20260505172337 12 65 3.2 3.2 0.00 0.00 0.00 65 1008.0
20260505171840 12 16 1.6 4.8 0.00 0.00 0.00 66 1008.0
20260505171337 12 138 0.0 3.2 0.00 0.00 0.00 66 1008.0
20260505170836 12 42 1.6 4.8 0.00 0.00 0.00 68 1008.0
20260505170336 12 67 1.6 3.2 0.00 0.00 0.00 67 1008.0
20260505165837 11 46 1.6 1.6 0.00 0.00 0.00 69 1008.0
20260505165337 12 350 1.6 1.6 0.00 0.00 0.00 68 1008.0
20260505164837 12 57 3.2 4.8 0.00 0.00 0.00 68 1008.0
20260505164336 12 109 1.6 4.8 0.00 0.00 0.00 69 1008.0
20260505163836 12 69 3.2 8.0 0.00 0.00 0.00 68 1008.0
20260505163337 12 89 0.0 3.2 0.00 0.00 0.00 69 1008.0
20260505162837 12 34 0.0 3.2 0.00 0.00 0.00 70 1008.0
20260505162337 12 86 0.0 4.8 0.00 0.00 0.00 68 1008.0
20260505161836 12 63 0.0 4.8 0.00 0.00 0.00 67 1008.0
20260505161336 12 37 0.0 9.7 0.00 0.00 0.00 67 1008.0
20260505160837 12 51 0.0 1.6 0.00 0.00 0.00 68 1008.0
20260505160337 12 71 1.6 3.2 0.00 0.00 0.00 67 1008.0
20260505153336 13 65 1.6 3.2 0.00 0.00 0.00 62 1008.0
20260505152836 13 85 0.0 1.6 0.00 0.00 0.00 61 1008.0
20260505152341 13 84 1.6 3.2 0.00 0.00 0.00 63 1008.0
20260505151836 12 102 0.0 3.2 0.00 0.00 0.00 62 1008.0
20260505151337 12 85 1.6 1.6 0.00 0.00 0.00 62 1008.0
20260505150837 13 73 0.0 8.0 0.00 0.00 0.00 63 1008.0
20260505150336 13 81 1.6 3.2 0.00 0.00 0.00 62 1008.0
20260505140337 12 91 1.6 3.2 0.00 0.00 0.00 64 1008.0
20260505124836 13 66 0.0 4.8 0.00 0.00 0.00 66 1009.0
20260505124336 13 74 1.6 4.8 0.00 0.00 0.00 66 1008.0
20260505123837 13 37 3.2 9.7 0.00 0.00 0.00 67 1008.0
20260505123339 12 55 1.6 3.2 0.00 0.00 0.00 69 1008.0
20260505122837 12 314 1.6 8.0 0.00 0.00 0.00 67 1008.0
20260505122336 12 43 1.6 4.8 0.00 0.00 0.00 67 1008.0
20260505121837 12 93 0.0 3.2 0.00 0.00 0.00 70 1008.0
20260505121336 13 72 3.2 4.8 0.00 0.00 0.00 67 1009.0
20260505120836 12 59 1.6 8.0 0.00 0.00 0.00 68 1008.0
20260505120337 13 43 3.2 4.8 0.00 0.00 0.00 68 1008.0
20260505115836 13 318 1.6 4.8 0.00 0.00 0.00 66 1008.0
20260505115336 13 63 1.6 4.8 0.00 0.00 0.00 65 1008.0
20260505114837 12 74 1.6 3.2 0.00 0.00 0.00 69 1008.0
20260505114337 12 102 1.6 1.6 0.00 0.00 0.00 71 1008.0
20260505113837 12 40 3.2 8.0 0.00 0.00 0.00 70 1009.0
20260505113336 12 65 4.8 4.8 0.00 0.00 0.00 70 1009.0
20260505112836 11 4 0.0 1.6 0.00 0.00 0.00 76 1009.0
20260505112336 11 100 0.0 1.6 0.00 0.00 0.00 75 1008.0
20260505111836 11 99 0.0 3.2 0.00 0.00 0.00 76 1009.0
20260505111337 10 100 0.0 1.6 0.00 0.00 0.00 82 1009.0
20260505110836 10 74 0.0 1.6 0.00 0.00 0.00 84 1009.0
20260505110336 10 204 1.6 1.6 0.00 0.00 0.00 84 1009.0
20260505101836 10 40 0.0 1.6 0.00 0.00 0.00 79 1009.0
20260505101336 11 311 0.0 3.2 0.00 0.00 0.00 80 1009.0
20260505100836 11 40 1.6 3.2 0.00 0.00 0.00 81 1009.0
20260505100337 11 21 1.6 11.3 0.00 0.00 0.00 78 1009.0
20260505095837 12 342 4.8 4.8 0.00 0.00 0.00 75 1009.0
20260505095341 12 32 3.2 8.0 0.00 0.00 0.00 74 1008.0
20260505094837 12 68 3.2 3.2 0.00 0.00 0.00 74 1008.0
20260505094336 12 97 1.6 1.6 0.00 0.00 0.00 74 1008.0
20260505093836 11 52 0.0 0.0 0.00 0.00 0.00 76 1008.0
20260505093336 11 51 1.6 1.6 0.00 0.00 0.00 74 1008.0
20260505092837 11 51 0.0 1.6 0.00 0.00 0.00 76 1009.0
20260505092337 11 48 0.0 4.8 0.00 0.00 0.00 77 1009.0
20260505091836 11 35 1.6 4.8 0.00 0.00 0.00 76 1009.0
20260505091336 11 352 0.0 3.2 0.00 0.00 0.00 77 1009.0
20260505090837 11 62 1.6 1.6 0.00 0.00 0.00 77 1008.0
20260505090336 11 46 1.6 3.2 0.00 0.00 0.00 77 1008.0
20260505085836 11 31 0.0 1.6 0.00 0.00 0.00 80 1009.0
20260505085337 11 26 1.6 3.2 0.00 0.00 0.00 80 1009.0
20260505084836 11 90 1.6 1.6 0.00 0.00 0.00 80 1009.0
20260505084336 10 90 1.6 1.6 0.00 0.00 0.00 80 1009.0
20260505083836 10 42 1.6 4.8 0.00 0.00 0.00 80 1009.0
20260505083336 10 5 1.6 1.6 0.00 0.00 0.00 80 1009.0
20260505082837 10 59 1.6 3.2 0.00 0.00 0.00 81 1009.0
20260505082337 10 60 0.0 3.2 0.00 0.00 0.00 82 1009.0
20260505081837 10 66 0.0 3.2 0.00 0.00 0.00 82 1009.0
20260505081336 10 33 0.0 4.8 0.00 0.00 0.00 81 1009.0
20260505080837 10 54 1.6 1.6 0.00 0.00 0.00 83 1009.0
20260505080337 10 54 0.0 1.6 0.00 0.00 0.00 83 1009.0
20260505075836 10 53 1.6 1.6 0.00 0.00 0.00 84 1009.0
20260505075336 10 87 0.0 1.6 0.00 0.00 0.00 84 1009.0
20260505074836 10 57 0.0 1.6 0.00 0.00 0.00 84 1009.0
20260505074337 10 55 0.0 0.0 0.00 0.00 0.00 85 1009.0
20260505073839 10 56 1.6 1.6 0.00 0.00 0.00 86 1009.0
20260505073336 10 80 0.0 0.0 0.00 0.00 0.00 87 1009.0
20260505072837 10 80 0.0 3.2 0.00 0.00 0.00 87 1009.0
20260505072337 10 65 0.0 0.0 0.00 0.00 0.00 88 1009.0
20260505071836 10 60 0.0 0.0 0.00 0.00 0.00 88 1008.0
20260505071336 10 60 0.0 1.6 0.00 0.00 0.00 88 1009.0
20260505070837 10 28 0.0 0.0 0.00 0.00 0.00 88 1008.0
20260505070336 10 76 0.0 1.6 0.00 0.00 0.00 88 1009.0
20260505065836 10 100 0.0 1.6 0.00 0.00 0.00 87 1009.0
20260505065336 10 91 0.0 1.6 0.00 0.00 0.00 87 1009.0
20260505064836 10 91 0.0 1.6 0.00 0.00 0.00 86 1009.0
20260505064337 10 72 0.0 1.6 0.00 0.00 0.00 86 1009.0
20260505063837 10 73 0.0 0.0 0.00 0.00 0.00 86 1009.0
20260505063337 10 73 0.0 1.6 0.00 0.00 0.00 86 1009.0
20260505062837 10 82 0.0 1.6 0.00 0.00 0.00 86 1009.0
20260505062336 10 70 0.0 1.6 0.00 0.00 0.00 86 1009.0
20260505061837 10 70 0.0 3.2 0.00 0.00 0.00 86 1009.0
20260505061338 10 71 1.6 1.6 0.00 0.00 0.00 87 1009.0
20260505060837 9 55 1.6 1.6 0.00 0.00 0.00 87 1009.0
20260505060336 9 56 0.0 1.6 0.00 0.00 0.00 87 1009.0
20260505055836 9 56 0.0 0.0 0.00 0.00 0.00 88 1009.0
20260505055336 9 51 0.0 0.0 0.00 0.00 0.00 88 1009.0
20260505054836 8 51 0.0 1.6 0.00 0.00 0.00 89 1009.0
20260505054337 8 46 0.0 1.6 0.00 0.00 0.00 90 1008.0
20260505053836 8 77 0.0 1.6 0.00 0.00 0.00 91 1009.0
20260505053336 8 77 0.0 1.6 0.00 0.00 0.00 91 1008.0
20260505052837 8 78 0.0 1.6 0.00 0.00 0.00 91 1009.0
20260505052336 8 77 0.0 1.6 0.00 0.00 0.00 91 1008.0
20260505051837 8 69 0.0 1.6 0.00 0.00 0.00 91 1008.0
20260505051337 8 69 0.0 1.6 0.00 0.00 0.00 92 1009.0
20260505050836 8 68 0.0 0.0 0.00 0.00 0.00 92 1009.0
20260505050337 7 68 0.0 0.0 0.00 0.00 0.00 92 1008.0
20260505041337 7 67 0.0 0.0 0.00 0.00 0.00 91 1008.0
20260505040837 7 67 0.0 0.0 0.00 0.00 0.00 91 1008.0
20260505040337 7 67 0.0 0.0 0.00 0.00 0.00 91 1008.0
20260505035836 7 67 0.0 0.0 0.00 0.00 0.00 91 1008.0
20260505035336 7 67 0.0 0.0 0.00 0.00 0.00 91 1008.0
20260505034837 7 67 0.0 0.0 0.00 0.00 0.00 92 1008.0
20260505034336 7 65 0.0 0.0 0.00 0.00 0.00 92 1008.0
20260505033837 7 65 0.0 0.0 0.00 0.00 0.00 92 1008.0
20260505033336 7 65 0.0 0.0 0.00 0.00 0.00 93 1008.0
20260505032836 7 86 0.0 1.6 0.00 0.00 0.00 93 1008.0
20260505032336 7 85 0.0 0.0 0.00 0.00 0.00 93 1009.0
20260505031836 7 85 0.0 0.0 0.00 0.00 0.00 93 1008.0
20260505031336 7 85 0.0 0.0 0.00 0.00 0.00 93 1008.0
20260505030837 7 85 0.0 1.6 0.00 0.00 0.00 94 1008.0
20260505030336 7 71 0.0 0.0 0.00 0.00 0.00 94 1009.0
20260505025836 7 66 0.0 0.0 0.00 0.00 0.00 94 1009.0
20260505025336 7 77 0.0 0.0 0.00 0.00 0.00 94 1008.0
20260505024836 7 77 0.0 0.0 0.00 0.00 0.00 94 1008.0
20260505024337 7 77 0.0 0.0 0.00 0.00 0.00 94 1009.0
20260505023836 7 77 0.0 1.6 0.00 0.00 0.00 94 1009.0
20260505023336 7 77 0.0 0.0 0.00 0.00 0.00 93 1008.0
20260505022837 7 77 0.0 0.0 0.00 0.00 0.00 93 1009.0
20260505022337 7 77 0.0 0.0 0.00 0.00 0.00 93 1008.0
20260505021838 7 77 0.0 0.0 0.00 0.00 0.00 93 1008.0
20260505021337 7 77 0.0 0.0 0.00 0.00 0.00 93 1009.0
20260505020836 7 77 0.0 0.0 0.00 0.00 0.00 93 1009.0
20260505020337 7 77 0.0 0.0 0.00 0.00 0.00 93 1009.0
20260505015837 7 77 0.0 0.0 0.00 0.00 0.00 93 1009.0
20260505015336 8 77 0.0 0.0 0.00 0.00 0.00 93 1009.0
20260505014837 8 77 0.0 0.0 0.00 0.00 0.00 93 1009.0
20260505014336 8 77 0.0 0.0 0.00 0.00 0.00 93 1009.0
20260505013836 8 77 0.0 0.0 0.00 0.00 0.00 93 1009.0
20260505013336 8 77 0.0 0.0 0.00 0.00 0.00 93 1009.0
20260505012836 8 77 0.0 1.6 0.00 0.00 0.00 93 1009.0
20260505012336 8 78 0.0 1.6 0.00 0.00 0.00 93 1009.0
20260505011836 8 77 0.0 1.6 0.00 0.00 0.00 93 1009.0
20260505011336 7 78 1.6 3.2 0.00 0.00 0.00 92 1009.0
20260505010837 7 78 0.0 0.0 0.00 0.00 0.00 92 1009.0
20260505010336 7 76 0.0 0.0 0.00 0.00 0.00 92 1009.0
20260505005837 7 76 0.0 0.0 0.00 0.00 0.00 92 1009.0
20260505005336 7 76 0.0 0.0 0.00 0.00 0.00 92 1009.0
20260505004837 7 79 0.0 0.0 0.00 0.00 0.00 91 1009.0
20260505004337 7 79 0.0 0.0 0.00 0.00 0.00 91 1009.0
20260505003837 7 79 0.0 0.0 0.00 0.00 0.00 91 1009.0
20260505003337 8 79 0.0 0.0 0.00 0.00 0.00 91 1009.0
20260505002836 8 79 0.0 0.0 0.00 0.00 0.00 90 1009.0
20260505002339 8 79 0.0 0.0 0.00 0.00 0.00 90 1009.0
20260505001837 8 79 0.0 1.6 0.00 0.00 0.00 90 1009.0
20260505001337 8 79 0.0 0.0 0.00 0.00 0.00 90 1009.0
20260505000836 8 79 0.0 0.0 0.00 0.00 0.00 90 1009.0
20260505000337 8 79 0.0 1.6 0.00 0.00 0.00 90 1009.0
20260504235836 8 79 0.0 0.0 0.00 0.00 0.00 89 1009.0
20260504235336 8 79 0.0 0.0 0.00 0.00 0.00 89 1009.0
20260504234840 8 79 0.0 0.0 0.00 0.00 0.00 89 1009.0
20260504234336 8 80 0.0 1.6 0.00 0.00 0.00 89 1009.0
20260504233836 8 80 0.0 0.0 0.00 0.00 0.00 89 1009.0
20260504233336 8 78 0.0 0.0 0.00 0.00 0.00 89 1009.0
20260504232836 8 79 0.0 0.0 0.00 0.00 0.00 89 1009.0
20260504232336 8 70 0.0 0.0 0.00 0.00 0.00 89 1009.0
20260504231837 8 70 0.0 1.6 0.00 0.00 0.00 89 1009.0
20260504231336 8 53 0.0 3.2 0.00 0.00 0.00 90 1009.0
20260504230837 8 63 0.0 0.0 0.00 0.00 0.00 90 1009.0
20260504230336 8 61 0.0 3.2 0.00 0.00 0.00 90 1009.0
20260504225836 8 80 0.0 0.0 0.00 0.00 0.00 90 1010.0
20260504225336 8 80 0.0 0.0 0.00 0.00 0.00 90 1009.0
20260504224837 8 80 0.0 1.6 0.00 0.00 0.00 90 1009.0
20260504224336 8 80 1.6 1.6 0.00 0.00 0.00 90 1009.0
20260504223837 8 76 0.0 0.0 0.00 0.00 0.00 90 1009.0
20260504223336 8 76 0.0 1.6 0.00 0.00 0.00 90 1010.0
20260504222836 8 77 0.0 0.0 0.00 0.00 0.00 89 1010.0
20260504222336 8 77 0.0 0.0 0.00 0.00 0.00 89 1010.0
20260504221836 8 77 0.0 0.0 0.00 0.00 0.00 88 1010.0
20260504221337 8 77 0.0 0.0 0.00 0.00 0.00 88 1010.0
20260504220837 8 77 0.0 0.0 0.00 0.00 0.00 88 1010.0
20260504220337 8 77 0.0 1.6 0.00 0.00 0.00 88 1010.0
20260504215837 8 47 0.0 1.6 0.00 0.00 0.00 87 1010.0
20260504215336 8 45 0.0 0.0 0.00 0.00 0.00 87 1010.0
20260504214836 8 45 0.0 0.0 0.00 0.00 0.00 86 1010.0
20260504214336 8 45 0.0 0.0 0.00 0.00 0.00 86 1010.0
20260504213837 8 45 0.0 0.0 0.00 0.00 0.00 86 1010.0
20260504213336 8 45 0.0 0.0 0.00 0.00 0.00 85 1010.0
20260504212838 8 45 0.0 0.0 0.00 0.00 0.00 85 1010.0
20260504212336 8 45 0.0 0.0 0.00 0.00 0.00 85 1010.0
20260504211837 8 45 0.0 0.0 0.00 0.00 0.00 84 1010.0
20260504211337 8 45 0.0 0.0 0.00 0.00 0.00 84 1010.0
20260504210837 8 38 0.0 0.0 0.00 0.00 0.00 84 1010.0
20260504210336 8 38 0.0 0.0 0.00 0.00 0.00 83 1010.0
20260504205836 8 38 0.0 0.0 0.00 0.00 0.00 83 1010.0
20260504205337 8 38 0.0 0.0 0.00 0.00 0.00 82 1010.0
20260504204836 9 38 0.0 0.0 0.00 0.00 0.00 82 1010.0
20260504204337 9 38 0.0 0.0 0.00 0.00 0.00 82 1010.0
20260504203836 9 38 0.0 0.0 0.00 0.00 0.00 81 1010.0
20260504203337 9 38 0.0 1.6 0.00 0.00 0.00 82 1010.0
20260504202837 9 38 0.0 0.0 0.00 0.00 0.00 81 1010.0
20260504202336 9 38 0.0 0.0 0.00 0.00 0.00 81 1010.0
20260504201837 9 38 0.0 3.2 0.00 0.00 0.00 82 1009.0
20260504201336 10 39 1.6 1.6 0.00 0.00 0.00 82 1010.0
20260504200836 10 38 0.0 1.6 0.00 0.00 0.00 81 1010.0
20260504200337 10 37 0.0 0.0 0.00 0.00 0.00 80 1010.0
20260504195842 10 37 0.0 0.0 0.00 0.00 0.00 79 1009.0
20260504195337 10 37 0.0 0.0 0.00 0.00 0.00 78 1009.0
20260504194836 10 37 0.0 0.0 0.00 0.00 0.00 78 1010.0
20260504194343 10 37 0.0 0.0 0.00 0.00 0.00 77 1009.0
20260504193837 10 37 1.6 1.6 0.00 0.00 0.00 77 1010.0
20260504193337 10 40 0.0 0.0 0.00 0.00 0.00 76 1009.0
20260504192837 10 352 0.0 0.0 0.00 0.00 0.00 76 1010.0
20260504192339 10 352 0.0 0.0 0.00 0.00 0.00 75 1009.0
20260504191836 10 338 1.6 1.6 0.00 0.00 0.00 75 1009.0
20260504191336 10 42 0.0 1.6 0.00 0.00 0.00 75 1009.0
20260504190836 11 332 1.6 8.0 0.00 0.00 0.00 75 1010.0
20260504190340 11 35 0.0 1.6 0.00 0.00 0.00 76 1009.0
20260504185837 11 99 0.0 1.6 0.00 0.00 0.00 77 1009.0
20260504185336 11 99 0.0 3.2 0.00 0.00 0.00 78 1009.0
20260504184841 11 347 1.6 1.6 0.00 0.00 0.00 78 1009.0
20260504184336 11 43 0.0 3.2 0.00 0.00 0.00 77 1009.0